Tracking 35048 objects as of 19-Aug-2026
HD Live streaming from Space Station
objects crossing your sky now

SITRO-AIS-16

Track SITRO-AIS-16 now!
10-day predictions
SITRO-AIS-16 is classified as:


NORAD ID: 61737
Int'l Code: 2024-199C
Launch date: November 4, 2024
Source: (TBD)
Launch site: VOSTOCHNY COSMODROME (VOSTO)

Uplink (MHz):
Downlink (MHz): 401.075
Beacon (MHz):
Mode: 2k4 GMSK_USP
Call sign: SC3234
Status: Active

Your satellite tracking list
Your tracking list is empty




NASA's NSSDC Master Catalog

Two Line Element Set (TLE):
1 61737U 24199C   26230.95796842  .00002591  00000-0  22474-3 0  9991
2 61737  97.3214  66.3754 0005943 196.8779 163.2248 14.97854171141213
Source of the keplerian elements: AFSPC